Time,TemperatureF,DewpointF,PressureIn,WindDirection,WindDirectionDegrees,WindSpeedMPH,WindSpeedGustMPH,Humidity,HourlyPrecipIn,Conditions,Clouds,dailyrainin,SoftwareType,DateUTC
2013-11-19 00:00:00,37.2,25.4,30.23,WNW,296,0.0,0.0,62,0.00,,,0.00,VWS V14.01,2013-11-19 05:00:00,
2013-11-19 00:04:00,37.2,25.4,30.23,WNW,296,0.0,0.0,62,0.00,,,0.00,VWS V14.01,2013-11-19 05:04:00,
2013-11-19 00:09:00,37.2,25.0,30.23,WNW,296,0.0,0.0,61,0.00,,,0.00,VWS V14.01,2013-11-19 05:09:00,
2013-11-19 00:10:00,37.2,25.0,30.23,WNW,296,1.0,0.0,61,0.00,,,0.00,VWS V14.01,2013-11-19 05:10:00,
2013-11-19 00:14:00,37.2,25.0,30.23,WNW,296,0.0,0.0,61,0.00,,,0.00,VWS V14.01,2013-11-19 05:14:00,
2013-11-19 00:19:00,37.0,24.8,30.23,WNW,296,0.0,0.0,61,0.00,,,0.00,VWS V14.01,2013-11-19 05:19:00,
2013-11-19 00:20:00,37.0,24.8,30.23,WNW,296,4.0,0.0,61,0.00,,,0.00,VWS V14.01,2013-11-19 05:20:00,
2013-11-19 00:24:00,37.0,24.4,30.23,WNW,291,1.0,0.0,60,0.00,,,0.00,VWS V14.01,2013-11-19 05:24:00,
2013-11-19 00:29:00,36.9,24.7,30.24,WNW,291,0.0,0.0,61,0.00,,,0.00,VWS V14.01,2013-11-19 05:29:00,
2013-11-19 00:30:00,36.9,24.7,30.24,WNW,291,1.0,0.0,61,0.00,,,0.00,VWS V14.01,2013-11-19 05:30:00,
2013-11-19 00:34:00,36.8,24.6,30.24,WNW,291,1.0,0.0,61,0.00,,,0.00,VWS V14.01,2013-11-19 05:34:00,
2013-11-19 00:39:00,36.8,24.6,30.24,WNW,291,0.0,0.0,61,0.00,,,0.00,VWS V14.01,2013-11-19 05:39:00,
2013-11-19 00:40:00,36.6,24.4,30.24,WNW,291,1.0,0.0,61,0.00,,,0.00,VWS V14.01,2013-11-19 05:40:00,
2013-11-19 00:44:00,36.6,24.4,30.24,WNW,291,0.0,0.0,61,0.00,,,0.00,VWS V14.01,2013-11-19 05:44:00,
2013-11-19 00:49:00,36.6,24.4,30.24,WNW,292,0.0,0.0,61,0.00,,,0.00,VWS V14.01,2013-11-19 05:49:00,
2013-11-19 00:50:00,36.6,24.0,30.24,WNW,291,1.0,0.0,60,0.00,,,0.00,VWS V14.01,2013-11-19 05:50:00,
2013-11-19 00:54:00,36.6,24.0,30.24,West,280,1.0,0.0,60,0.00,,,0.00,VWS V14.01,2013-11-19 05:54:00,
2013-11-19 00:59:00,36.5,24.3,30.24,WNW,284,0.0,0.0,61,0.00,,,0.00,VWS V14.01,2013-11-19 05:59:00,
2013-11-19 01:00:00,36.5,24.3,30.24,WNW,284,0.0,0.0,61,0.00,,,0.00,VWS V14.01,2013-11-19 06:00:00,
2013-11-19 01:04:00,36.3,24.1,30.24,WNW,292,0.0,0.0,61,0.00,,,0.00,VWS V14.01,2013-11-19 06:04:00,
2013-11-19 01:09:00,36.3,23.8,30.24,WNW,296,0.0,0.0,60,0.00,,,0.00,VWS V14.01,2013-11-19 06:09:00,
2013-11-19 01:10:00,36.3,24.1,30.24,WNW,295,0.0,0.0,61,0.00,,,0.00,VWS V14.01,2013-11-19 06:10:00,
2013-11-19 01:14:00,36.3,24.1,30.25,WNW,295,2.0,0.0,61,0.00,,,0.00,VWS V14.01,2013-11-19 06:14:00,
2013-11-19 01:19:00,36.3,24.1,30.25,NW,308,3.0,0.0,61,0.00,,,0.00,VWS V14.01,2013-11-19 06:19:00,
2013-11-19 01:20:00,36.3,24.1,30.25,NW,306,0.0,0.0,61,0.00,,,0.00,VWS V14.01,2013-11-19 06:20:00,
2013-11-19 01:24:00,36.2,24.1,30.25,WNW,284,1.0,0.0,61,0.00,,,0.00,VWS V14.01,2013-11-19 06:24:00,
2013-11-19 01:29:00,36.0,23.9,30.25,WNW,284,1.0,0.0,61,0.00,,,0.00,VWS V14.01,2013-11-19 06:29:00,
2013-11-19 01:30:00,36.0,23.9,30.25,WNW,284,0.0,0.0,61,0.00,,,0.00,VWS V14.01,2013-11-19 06:30:00,
2013-11-19 01:34:00,35.9,24.2,30.25,WNW,296,0.0,0.0,62,0.00,,,0.00,VWS V14.01,2013-11-19 06:34:00,
2013-11-19 01:39:00,35.8,24.1,30.25,WNW,295,3.0,0.0,62,0.00,,,0.00,VWS V14.01,2013-11-19 06:39:00,
2013-11-19 01:40:00,35.6,23.9,30.25,WNW,295,1.0,0.0,62,0.00,,,0.00,VWS V14.01,2013-11-19 06:40:00,
2013-11-19 01:44:00,35.5,24.2,30.25,WNW,296,0.0,0.0,63,0.00,,,0.00,VWS V14.01,2013-11-19 06:44:00,
2013-11-19 01:49:00,35.3,24.0,30.25,WNW,296,0.0,0.0,63,0.00,,,0.00,VWS V14.01,2013-11-19 06:49:00,
2013-11-19 01:50:00,35.2,23.9,30.25,WNW,296,3.0,0.0,63,0.00,,,0.00,VWS V14.01,2013-11-19 06:50:00,
2013-11-19 01:54:00,35.0,23.7,30.25,WNW,296,0.0,0.0,63,0.00,,,0.00,VWS V14.01,2013-11-19 06:54:00,
2013-11-19 01:59:00,34.9,24.0,30.25,WNW,296,0.0,0.0,64,0.00,,,0.00,VWS V14.01,2013-11-19 06:59:00,
2013-11-19 02:00:00,34.9,24.0,30.25,WNW,296,0.0,0.0,64,0.00,,,0.00,VWS V14.01,2013-11-19 07:00:00,
2013-11-19 02:04:00,34.7,24.1,30.25,WNW,296,0.0,0.0,65,0.00,,,0.00,VWS V14.01,2013-11-19 07:04:00,
2013-11-19 02:09:00,34.6,24.1,30.25,WNW,296,0.0,0.0,65,0.00,,,0.00,VWS V14.01,2013-11-19 07:09:00,
2013-11-19 02:10:00,34.6,24.1,30.25,WNW,296,1.0,0.0,65,0.00,,,0.00,VWS V14.01,2013-11-19 07:10:00,
2013-11-19 02:14:00,34.4,23.9,30.25,WNW,296,1.0,0.0,65,0.00,,,0.00,VWS V14.01,2013-11-19 07:14:00,
2013-11-19 02:19:00,34.3,23.8,30.25,WNW,296,0.0,0.0,65,0.00,,,0.00,VWS V14.01,2013-11-19 07:19:00,
2013-11-19 02:20:00,34.3,24.1,30.25,WNW,296,0.0,0.0,66,0.00,,,0.00,VWS V14.01,2013-11-19 07:20:00,
2013-11-19 02:24:00,34.1,24.0,30.25,WNW,296,1.0,0.0,66,0.00,,,0.00,VWS V14.01,2013-11-19 07:24:00,
2013-11-19 02:29:00,33.8,24.0,30.26,WNW,296,1.0,0.0,67,0.00,,,0.00,VWS V14.01,2013-11-19 07:29:00,
2013-11-19 02:30:00,33.8,23.7,30.26,WNW,296,0.0,0.0,66,0.00,,,0.00,VWS V14.01,2013-11-19 07:30:00,
2013-11-19 02:34:00,33.8,24.0,30.26,WNW,296,0.0,0.0,67,0.00,,,0.00,VWS V14.01,2013-11-19 07:34:00,
2013-11-19 02:39:00,33.7,23.9,30.26,WNW,296,0.0,0.0,67,0.00,,,0.00,VWS V14.01,2013-11-19 07:39:00,
2013-11-19 02:40:00,33.7,23.9,30.26,WNW,296,0.0,0.0,67,0.00,,,0.00,VWS V14.01,2013-11-19 07:40:00,
2013-11-19 02:44:00,33.5,24.1,30.26,WNW,296,0.0,0.0,68,0.00,,,0.00,VWS V14.01,2013-11-19 07:44:00,
2013-11-19 02:49:00,33.5,24.1,30.26,WNW,296,1.0,0.0,68,0.00,,,0.00,VWS V14.01,2013-11-19 07:49:00,
2013-11-19 02:50:00,33.5,24.1,30.26,WNW,296,0.0,0.0,68,0.00,,,0.00,VWS V14.01,2013-11-19 07:50:00,
2013-11-19 02:54:00,33.4,24.0,30.26,WNW,296,0.0,0.0,68,0.00,,,0.00,VWS V14.01,2013-11-19 07:54:00,
2013-11-19 02:59:00,33.4,24.0,30.26,WNW,296,0.0,0.0,68,0.00,,,0.00,VWS V14.01,2013-11-19 07:59:00,
2013-11-19 03:00:00,33.4,24.0,30.26,WNW,296,0.0,0.0,68,0.00,,,0.00,VWS V14.01,2013-11-19 08:00:00,
2013-11-19 03:04:00,33.2,23.8,30.26,WNW,296,0.0,0.0,68,0.00,,,0.00,VWS V14.01,2013-11-19 08:04:00,
2013-11-19 03:09:00,33.1,23.7,30.26,WNW,296,0.0,0.0,68,0.00,,,0.00,VWS V14.01,2013-11-19 08:09:00,
2013-11-19 03:10:00,33.1,23.7,30.26,WNW,296,0.0,0.0,68,0.00,,,0.00,VWS V14.01,2013-11-19 08:10:00,
2013-11-19 03:14:00,32.9,23.5,30.25,WNW,296,0.0,0.0,68,0.00,,,0.00,VWS V14.01,2013-11-19 08:14:00,
2013-11-19 03:19:00,32.9,23.9,30.25,WNW,296,1.0,0.0,69,0.00,,,0.00,VWS V14.01,2013-11-19 08:19:00,
2013-11-19 03:20:00,32.9,23.9,30.25,WNW,296,0.0,0.0,69,0.00,,,0.00,VWS V14.01,2013-11-19 08:20:00,
2013-11-19 03:24:00,32.9,23.9,30.25,WNW,296,0.0,0.0,69,0.00,,,0.00,VWS V14.01,2013-11-19 08:24:00,
2013-11-19 03:29:00,32.9,23.9,30.26,WNW,296,2.0,0.0,69,0.00,,,0.00,VWS V14.01,2013-11-19 08:29:00,
2013-11-19 03:30:00,32.9,23.9,30.26,WNW,296,0.0,0.0,69,0.00,,,0.00,VWS V14.01,2013-11-19 08:30:00,
2013-11-19 03:34:00,32.9,23.9,30.26,WNW,296,0.0,0.0,69,0.00,,,0.00,VWS V14.01,2013-11-19 08:34:00,
2013-11-19 03:39:00,32.9,24.2,30.26,NW,306,0.0,0.0,70,0.00,,,0.00,VWS V14.01,2013-11-19 08:39:00,
2013-11-19 03:40:00,32.9,23.9,30.26,NW,306,0.0,0.0,69,0.00,,,0.00,VWS V14.01,2013-11-19 08:40:00,
2013-11-19 03:44:00,32.9,24.2,30.27,NW,306,0.0,0.0,70,0.00,,,0.00,VWS V14.01,2013-11-19 08:44:00,
2013-11-19 03:49:00,32.9,24.5,30.27,NW,306,0.0,0.0,71,0.00,,,0.00,VWS V14.01,2013-11-19 08:49:00,
2013-11-19 03:50:00,32.9,24.5,30.27,NW,306,0.0,0.0,71,0.00,,,0.00,VWS V14.01,2013-11-19 08:50:00,
2013-11-19 03:54:00,32.8,24.1,30.27,NW,306,0.0,0.0,70,0.00,,,0.00,VWS V14.01,2013-11-19 08:54:00,
2013-11-19 03:59:00,32.8,24.8,30.27,NW,306,0.0,0.0,72,0.00,,,0.00,VWS V14.01,2013-11-19 08:59:00,
2013-11-19 04:00:00,32.8,24.8,30.27,NW,306,0.0,0.0,72,0.00,,,0.00,VWS V14.01,2013-11-19 09:00:00,
2013-11-19 04:04:00,32.7,24.4,30.27,NW,306,0.0,0.0,71,0.00,,,0.00,VWS V14.01,2013-11-19 09:04:00,
2013-11-19 04:09:00,32.7,25.3,30.27,NW,306,0.0,0.0,74,0.00,,,0.00,VWS V14.01,2013-11-19 09:09:00,
2013-11-19 04:10:00,32.7,25.3,30.27,NW,306,0.0,0.0,74,0.00,,,0.00,VWS V14.01,2013-11-19 09:10:00,
2013-11-19 04:20:00,32.8,25.1,30.27,NW,306,0.0,0.0,73,0.00,,,0.00,VWS V14.01,2013-11-19 09:20:00,
2013-11-19 04:24:00,32.4,24.4,30.27,NW,306,0.0,0.0,72,0.00,,,0.00,VWS V14.01,2013-11-19 09:24:00,
2013-11-19 04:29:00,32.1,24.1,30.27,NW,306,0.0,0.0,72,0.00,,,0.00,VWS V14.01,2013-11-19 09:29:00,
2013-11-19 04:30:00,32.1,24.1,30.27,NW,306,0.0,0.0,72,0.00,,,0.00,VWS V14.01,2013-11-19 09:30:00,
2013-11-19 04:35:00,31.9,23.9,30.27,NW,306,0.0,0.0,72,0.00,,,0.00,VWS V14.01,2013-11-19 09:35:00,
2013-11-19 04:40:00,31.8,24.1,30.27,NW,306,0.0,0.0,73,0.00,,,0.00,VWS V14.01,2013-11-19 09:40:00,
2013-11-19 04:45:00,31.6,24.3,30.28,NW,306,0.0,0.0,74,0.00,,,0.00,VWS V14.01,2013-11-19 09:45:00,
2013-11-19 04:50:00,31.6,24.3,30.28,NW,306,0.0,0.0,74,0.00,,,0.00,VWS V14.01,2013-11-19 09:50:00,
2013-11-19 05:00:00,31.6,24.0,30.28,NW,306,0.0,0.0,73,0.00,,,0.00,VWS V14.01,2013-11-19 10:00:00,
2013-11-19 05:10:00,31.6,24.3,30.28,NW,307,0.0,0.0,74,0.00,,,0.00,VWS V14.01,2013-11-19 10:10:00,
2013-11-19 05:15:00,32.7,25.3,30.27,NW,306,0.0,0.0,74,0.00,,,0.00,VWS V14.01,2013-11-19 10:15:00,
2013-11-19 05:20:00,31.8,24.5,30.29,NW,306,0.0,0.0,74,0.00,,,0.00,VWS V14.01,2013-11-19 10:20:00,
2013-11-19 05:25:00,32.8,25.4,30.27,NW,306,0.0,0.0,74,0.00,,,0.00,VWS V14.01,2013-11-19 10:25:00,
2013-11-19 05:30:00,31.8,24.5,30.30,NW,307,0.0,0.0,74,0.00,,,0.00,VWS V14.01,2013-11-19 10:30:00,
2013-11-19 05:35:00,32.1,24.1,30.27,NW,306,0.0,0.0,72,0.00,,,0.00,VWS V14.01,2013-11-19 10:35:00,
2013-11-19 05:40:00,31.5,24.2,30.30,NW,307,0.0,0.0,74,0.00,,,0.00,VWS V14.01,2013-11-19 10:40:00,
2013-11-19 05:45:00,31.8,24.1,30.27,NW,306,0.0,0.0,73,0.00,,,0.00,VWS V14.01,2013-11-19 10:45:00,
2013-11-19 05:50:00,31.5,24.2,30.30,NNW,343,2.0,0.0,74,0.00,,,0.00,VWS V14.01,2013-11-19 10:50:00,
2013-11-19 05:55:00,31.6,24.3,30.28,NW,306,0.0,0.0,74,0.00,,,0.00,VWS V14.01,2013-11-19 10:55:00,
2013-11-19 06:00:00,31.6,24.3,30.31,NNW,342,5.0,0.0,74,0.00,,,0.00,VWS V14.01,2013-11-19 11:00:00,
2013-11-19 06:05:00,31.6,24.0,30.28,NW,306,0.0,0.0,73,0.00,,,0.00,VWS V14.01,2013-11-19 11:05:00,
2013-11-19 06:10:00,31.6,24.0,30.28,NW,306,0.0,0.0,73,0.00,,,0.00,VWS V14.01,2013-11-19 11:10:00,
2013-11-19 06:15:00,31.6,24.3,30.28,NW,307,0.0,0.0,74,0.00,,,0.00,VWS V14.01,2013-11-19 11:15:00,
2013-11-19 06:20:00,31.5,24.2,30.31,NNW,338,0.0,0.0,74,0.00,,,0.00,VWS V14.01,2013-11-19 11:20:00,
2013-11-19 06:25:00,31.8,24.5,30.29,NW,306,0.0,0.0,74,0.00,,,0.00,VWS V14.01,2013-11-19 11:25:00,
2013-11-19 06:30:00,31.3,24.3,30.32,NNW,338,0.0,0.0,75,0.00,,,0.00,VWS V14.01,2013-11-19 11:30:00,
2013-11-19 06:36:00,31.8,24.5,30.30,NW,307,0.0,0.0,74,0.00,,,0.00,VWS V14.01,2013-11-19 11:36:00,
2013-11-19 06:40:00,31.2,24.2,30.32,NNW,338,0.0,0.0,75,0.00,,,0.00,VWS V14.01,2013-11-19 11:40:00,
2013-11-19 06:41:00,31.6,24.3,30.30,NW,307,0.0,0.0,74,0.00,,,0.00,VWS V14.01,2013-11-19 11:41:00,
2013-11-19 06:50:00,31.5,24.5,30.32,NNW,338,0.0,0.0,75,0.00,,,0.00,VWS V14.01,2013-11-19 11:50:00,
2013-11-19 06:51:00,31.5,24.2,30.30,NNW,344,0.0,0.0,74,0.00,,,0.00,VWS V14.01,2013-11-19 11:51:00,
2013-11-19 06:55:00,31.6,24.6,30.32,NNW,338,0.0,0.0,75,0.00,,,0.00,VWS V14.01,2013-11-19 11:55:00,
2013-11-19 06:56:00,31.5,24.2,30.30,NNW,343,1.0,0.0,74,0.00,,,0.00,VWS V14.01,2013-11-19 11:56:00,
2013-11-19 07:00:00,31.9,24.9,30.32,NNW,338,0.0,0.0,75,0.00,,,0.00,VWS V14.01,2013-11-19 12:00:00,
2013-11-19 07:01:00,31.6,24.3,30.30,NNW,342,0.0,0.0,74,0.00,,,0.00,VWS V14.01,2013-11-19 12:01:00,
2013-11-19 07:06:00,31.6,24.3,30.31,NNW,342,4.0,0.0,74,0.00,,,0.00,VWS V14.01,2013-11-19 12:06:00,
2013-11-19 07:10:00,32.2,24.9,30.32,NNW,338,0.0,0.0,74,0.00,,,0.00,VWS V14.01,2013-11-19 12:10:00,
2013-11-19 07:15:00,31.6,24.3,30.31,NNW,338,3.0,0.0,74,0.00,,,0.00,VWS V14.01,2013-11-19 12:15:00,
2013-11-19 07:20:00,32.8,25.4,30.33,NE,42,0.0,0.0,74,0.00,,,0.00,VWS V14.01,2013-11-19 12:20:00,
2013-11-19 07:25:00,31.5,24.2,30.31,NNW,338,0.0,0.0,74,0.00,,,0.00,VWS V14.01,2013-11-19 12:25:00,
2013-11-19 07:30:00,33.1,25.7,30.33,NNW,345,3.0,0.0,74,0.00,,,0.00,VWS V14.01,2013-11-19 12:30:00,
2013-11-19 07:35:00,31.3,24.3,30.32,NNW,338,0.0,0.0,75,0.00,,,0.00,VWS V14.01,2013-11-19 12:35:00,
2013-11-19 07:40:00,33.8,26.1,30.33,NNW,327,4.0,0.0,73,0.00,,,0.00,VWS V14.01,2013-11-19 12:40:00,
2013-11-19 07:41:00,31.2,24.2,30.32,NNW,338,0.0,0.0,75,0.00,,,0.00,VWS V14.01,2013-11-19 12:41:00,
2013-11-19 07:46:00,31.2,24.2,30.32,NNW,338,0.0,0.0,75,0.00,,,0.00,VWS V14.01,2013-11-19 12:46:00,
2013-11-19 07:50:00,34.3,26.2,30.34,North,5,3.0,0.0,72,0.00,,,0.00,VWS V14.01,2013-11-19 12:50:00,
2013-11-19 07:51:00,31.3,24.3,30.32,NNW,338,0.0,0.0,75,0.00,,,0.00,VWS V14.01,2013-11-19 12:51:00,
2013-11-19 08:00:00,35.2,26.8,30.34,North,5,0.0,0.0,71,0.00,,,0.00,VWS V14.01,2013-11-19 13:00:00,
2013-11-19 08:05:00,31.9,24.9,30.32,NNW,338,0.0,0.0,75,0.00,,,0.00,VWS V14.01,2013-11-19 13:05:00,
2013-11-19 08:10:00,35.3,26.5,30.34,NNW,335,3.0,0.0,70,0.00,,,0.00,VWS V14.01,2013-11-19 13:10:00,
2013-11-19 08:11:00,32.1,24.8,30.32,NNW,338,0.0,0.0,74,0.00,,,0.00,VWS V14.01,2013-11-19 13:11:00,
2013-11-19 08:16:00,32.2,24.9,30.32,NNW,338,0.0,0.0,74,0.00,,,0.00,VWS V14.01,2013-11-19 13:16:00,
2013-11-19 08:20:00,35.6,26.5,30.34,NE,49,2.0,0.0,69,0.00,,,0.00,VWS V14.01,2013-11-19 13:20:00,
2013-11-19 08:21:00,32.5,25.1,30.33,NNW,338,3.0,0.0,74,0.00,,,0.00,VWS V14.01,2013-11-19 13:21:00,
2013-11-19 08:25:00,36.0,26.1,30.34,NNE,30,0.0,0.0,67,0.00,,,0.00,VWS V14.01,2013-11-19 13:25:00,
2013-11-19 08:26:00,32.8,25.4,30.33,NE,42,0.0,0.0,74,0.00,,,0.00,VWS V14.01,2013-11-19 13:26:00,
2013-11-19 08:30:00,36.2,26.0,30.35,NNW,331,0.0,0.0,66,0.00,,,0.00,VWS V14.01,2013-11-19 13:30:00,
2013-11-19 08:31:00,32.9,25.2,30.33,NNW,333,6.0,0.0,73,0.00,,,0.00,VWS V14.01,2013-11-19 13:31:00,
2013-11-19 08:40:00,36.8,26.5,30.35,North,360,3.0,0.0,66,0.00,,,0.00,VWS V14.01,2013-11-19 13:40:00,
2013-11-19 08:41:00,33.5,25.8,30.33,NNW,347,0.0,0.0,73,0.00,,,0.00,VWS V14.01,2013-11-19 13:41:00,
2013-11-19 08:46:00,33.8,26.1,30.33,NNW,327,0.0,0.0,73,0.00,,,0.00,VWS V14.01,2013-11-19 13:46:00,
2013-11-19 08:50:00,37.3,26.3,30.35,NNE,33,0.0,0.0,64,0.00,,,0.00,VWS V14.01,2013-11-19 13:50:00,
2013-11-19 08:51:00,34.0,25.9,30.34,NNE,28,4.0,0.0,72,0.00,,,0.00,VWS V14.01,2013-11-19 13:51:00,
2013-11-19 08:56:00,34.4,26.3,30.34,NNE,25,2.0,0.0,72,0.00,,,0.00,VWS V14.01,2013-11-19 13:56:00,
2013-11-19 09:00:00,37.5,26.1,30.35,NE,44,0.0,0.0,63,0.00,,,0.00,VWS V14.01,2013-11-19 14:00:00,
2013-11-19 09:01:00,34.7,26.6,30.34,North,5,0.0,0.0,72,0.00,,,0.00,VWS V14.01,2013-11-19 14:01:00,
2013-11-19 09:05:00,37.6,26.2,30.35,NE,48,3.0,0.0,63,0.00,,,0.00,VWS V14.01,2013-11-19 14:05:00,
2013-11-19 09:10:00,37.8,26.4,30.35,NNE,19,1.0,0.0,63,0.00,,,0.00,VWS V14.01,2013-11-19 14:10:00,
2013-11-19 09:11:00,35.2,26.4,30.34,NNE,21,2.0,0.0,70,0.00,,,0.00,VWS V14.01,2013-11-19 14:11:00,
2013-11-19 09:16:00,35.3,26.5,30.34,North,351,0.0,0.0,70,0.00,,,0.00,VWS V14.01,2013-11-19 14:16:00,
2013-11-19 09:20:00,38.3,26.0,30.35,North,5,1.0,0.0,61,0.00,,,0.00,VWS V14.01,2013-11-19 14:20:00,
2013-11-19 09:21:00,35.3,26.2,30.34,WNW,296,3.0,0.0,69,0.00,,,0.00,VWS V14.01,2013-11-19 14:21:00,
2013-11-19 09:25:00,38.5,26.2,30.35,NE,42,5.0,0.0,61,0.00,,,0.00,VWS V14.01,2013-11-19 14:25:00,
2013-11-19 09:26:00,35.6,26.5,30.34,NE,49,0.0,0.0,69,0.00,,,0.00,VWS V14.01,2013-11-19 14:26:00,
2013-11-19 09:30:00,38.9,26.6,30.35,NE,42,6.0,0.0,61,0.00,,,0.00,VWS V14.01,2013-11-19 14:30:00,
2013-11-19 09:35:00,36.2,26.3,30.35,NNW,329,0.0,0.0,67,0.00,,,0.00,VWS V14.01,2013-11-19 14:35:00,
2013-11-19 09:40:00,39.8,26.7,30.35,NNE,28,3.0,0.0,59,0.00,,,0.00,VWS V14.01,2013-11-19 14:40:00,
2013-11-19 09:41:00,36.5,26.6,30.35,NNE,17,7.0,0.0,67,0.00,,,0.00,VWS V14.01,2013-11-19 14:41:00,
2013-11-19 09:46:00,36.8,26.1,30.35,NNE,21,0.0,0.0,65,0.00,,,0.00,VWS V14.01,2013-11-19 14:46:00,
2013-11-19 09:50:00,39.8,26.7,30.34,North,5,8.0,0.0,59,0.00,,,0.00,VWS V14.01,2013-11-19 14:50:00,
2013-11-19 09:51:00,37.0,26.3,30.35,NE,49,1.0,0.0,65,0.00,,,0.00,VWS V14.01,2013-11-19 14:51:00,
2013-11-19 10:00:00,39.8,26.7,30.35,ENE,62,1.0,0.0,59,0.00,,,0.00,VWS V14.01,2013-11-19 15:00:00,
2013-11-19 10:01:00,37.5,25.7,30.35,NE,36,5.0,0.0,62,0.00,,,0.00,VWS V14.01,2013-11-19 15:01:00,
2013-11-19 10:06:00,37.5,26.5,30.35,NE,44,0.0,0.0,64,0.00,,,0.00,VWS V14.01,2013-11-19 15:06:00,
2013-11-19 10:10:00,39.8,26.2,30.35,East,80,7.0,0.0,58,0.00,,,0.00,VWS V14.01,2013-11-19 15:10:00,
2013-11-19 10:11:00,39.8,25.8,30.35,NE,35,5.0,0.0,57,0.00,,,0.00,VWS V14.01,2013-11-19 15:11:00,
2013-11-19 10:16:00,37.9,26.5,30.35,NE,51,4.0,0.0,63,0.00,,,0.00,VWS V14.01,2013-11-19 15:16:00,
2013-11-19 10:20:00,39.9,26.3,30.34,NE,47,4.0,0.0,58,0.00,,,0.00,VWS V14.01,2013-11-19 15:20:00,
2013-11-19 10:21:00,38.3,26.4,30.35,NNW,330,4.0,0.0,62,0.00,,,0.00,VWS V14.01,2013-11-19 15:21:00,
2013-11-19 10:26:00,38.3,26.0,30.35,NNE,22,3.0,0.0,61,0.00,,,0.00,VWS V14.01,2013-11-19 15:26:00,
2013-11-19 10:30:00,40.2,27.0,30.34,NW,324,3.0,0.0,59,0.00,,,0.00,VWS V14.01,2013-11-19 15:30:00,
2013-11-19 10:31:00,40.3,26.7,30.34,NE,43,1.0,0.0,58,0.00,,,0.00,VWS V14.01,2013-11-19 15:31:00,
2013-11-19 10:36:00,38.9,26.6,30.35,NE,48,2.0,0.0,61,0.00,,,0.00,VWS V14.01,2013-11-19 15:36:00,
2013-11-19 10:40:00,40.3,26.3,30.34,NNE,30,3.0,0.0,57,0.00,,,0.00,VWS V14.01,2013-11-19 15:40:00,
2013-11-19 10:41:00,39.5,26.4,30.35,NE,51,2.0,0.0,59,0.00,,,0.00,VWS V14.01,2013-11-19 15:41:00,
2013-11-19 10:46:00,39.9,26.8,30.35,NNE,31,4.0,0.0,59,0.00,,,0.00,VWS V14.01,2013-11-19 15:46:00,
2013-11-19 10:50:00,40.3,26.3,30.34,ENE,66,2.0,0.0,57,0.00,,,0.00,VWS V14.01,2013-11-19 15:50:00,
2013-11-19 10:51:00,39.6,25.6,30.34,NNW,336,7.0,0.0,57,0.00,,,0.00,VWS V14.01,2013-11-19 15:51:00,
2013-11-19 10:56:00,39.6,25.6,30.34,North,360,5.0,0.0,57,0.00,,,0.00,VWS V14.01,2013-11-19 15:56:00,
2013-11-19 11:00:00,41.3,27.2,30.33,NNE,32,7.0,0.0,57,0.00,,,0.00,VWS V14.01,2013-11-19 16:00:00,
2013-11-19 11:01:00,39.6,26.5,30.34,East,84,3.0,0.0,59,0.00,,,0.00,VWS V14.01,2013-11-19 16:01:00,
2013-11-19 11:06:00,39.9,26.3,30.35,ENE,69,5.0,0.0,58,0.00,,,0.00,VWS V14.01,2013-11-19 16:06:00,
2013-11-19 11:10:00,41.3,26.8,30.33,NE,41,0.0,0.0,56,0.00,,,0.00,VWS V14.01,2013-11-19 16:10:00,
2013-11-19 11:15:00,39.8,26.2,30.35,East,80,7.0,0.0,58,0.00,,,0.00,VWS V14.01,2013-11-19 16:15:00,
2013-11-19 11:20:00,42.1,27.1,30.32,ENE,61,2.0,0.0,55,0.00,,,0.00,VWS V14.01,2013-11-19 16:20:00,
2013-11-19 11:30:00,41.6,25.3,30.33,NE,40,8.0,0.0,52,0.00,,,0.00,VWS V14.01,2013-11-19 16:30:00,
2013-11-19 11:31:00,41.3,25.0,30.33,NNE,19,3.0,0.0,52,0.00,,,0.00,VWS V14.01,2013-11-19 16:31:00,
2013-11-19 11:35:00,40.2,27.0,30.34,NW,324,3.0,0.0,59,0.00,,,0.00,VWS V14.01,2013-11-19 16:35:00,
2013-11-19 11:40:00,41.5,26.1,30.33,NNW,329,7.0,0.0,54,0.00,,,0.00,VWS V14.01,2013-11-19 16:40:00,
2013-11-19 11:41:00,40.2,25.8,30.34,NNE,32,0.0,0.0,56,0.00,,,0.00,VWS V14.01,2013-11-19 16:41:00,
2013-11-19 11:46:00,40.5,26.5,30.34,NNE,30,2.0,0.0,57,0.00,,,0.00,VWS V14.01,2013-11-19 16:46:00,
2013-11-19 11:50:00,40.9,26.4,30.32,ENE,72,1.0,0.0,56,0.00,,,0.00,VWS V14.01,2013-11-19 16:50:00,
2013-11-19 11:51:00,40.3,26.7,30.34,NNE,30,6.0,0.0,58,0.00,,,0.00,VWS V14.01,2013-11-19 16:51:00,
2013-11-19 11:56:00,40.5,26.9,30.34,ENE,62,1.0,0.0,58,0.00,,,0.00,VWS V14.01,2013-11-19 16:56:00,
2013-11-19 12:00:00,41.1,26.6,30.32,NW,307,5.0,0.0,56,0.00,,,0.00,VWS V14.01,2013-11-19 17:00:00,
2013-11-19 12:01:00,40.9,26.4,30.34,ENE,77,1.0,0.0,56,0.00,,,0.00,VWS V14.01,2013-11-19 17:01:00,
2013-11-19 12:06:00,41.3,26.4,30.33,NNW,342,1.0,0.0,55,0.00,,,0.00,VWS V14.01,2013-11-19 17:06:00,
2013-11-19 12:10:00,40.8,26.3,30.32,NE,49,3.0,0.0,56,0.00,,,0.00,VWS V14.01,2013-11-19 17:10:00,
2013-11-19 12:12:00,41.3,26.8,30.33,ENE,66,3.0,0.0,56,0.00,,,0.00,VWS V14.01,2013-11-19 17:12:00,
2013-11-19 12:16:00,41.8,27.3,30.31,NE,36,5.0,0.0,56,0.00,,,0.00,VWS V14.01,2013-11-19 17:16:00,
2013-11-19 12:17:00,41.3,26.8,30.33,NNE,13,0.0,0.0,56,0.00,,,0.00,VWS V14.01,2013-11-19 17:17:00,
2013-11-19 12:20:00,42.1,26.7,30.31,ENE,60,1.0,0.0,54,0.00,,,0.00,VWS V14.01,2013-11-19 17:20:00,
2013-11-19 12:22:00,41.9,27.4,30.32,NE,38,1.0,0.0,56,0.00,,,0.00,VWS V14.01,2013-11-19 17:22:00,
2013-11-19 12:27:00,41.8,26.4,30.32,North,351,5.0,0.0,54,0.00,,,0.00,VWS V14.01,2013-11-19 17:27:00,
2013-11-19 12:30:00,42.3,26.9,30.31,NNE,18,2.0,0.0,54,0.00,,,0.00,VWS V14.01,2013-11-19 17:30:00,
2013-11-19 12:32:00,41.8,26.4,30.32,NNW,331,4.0,0.0,54,0.00,,,0.00,VWS V14.01,2013-11-19 17:32:00,
2013-11-19 12:40:00,42.5,27.0,30.31,NE,56,5.0,0.0,54,0.00,,,0.00,VWS V14.01,2013-11-19 17:40:00,
2013-11-19 12:42:00,41.6,26.2,30.33,NNE,33,1.0,0.0,54,0.00,,,0.00,VWS V14.01,2013-11-19 17:42:00,
2013-11-19 12:50:00,42.2,26.8,30.31,NE,36,0.0,0.0,54,0.00,,,0.00,VWS V14.01,2013-11-19 17:50:00,
2013-11-19 12:52:00,41.1,26.6,30.32,ENE,65,4.0,0.0,56,0.00,,,0.00,VWS V14.01,2013-11-19 17:52:00,
2013-11-19 13:00:00,41.6,26.6,30.31,ENE,61,2.0,0.0,55,0.00,,,0.00,VWS V14.01,2013-11-19 18:00:00,
2013-11-19 13:02:00,41.3,26.4,30.32,East,90,6.0,0.0,55,0.00,,,0.00,VWS V14.01,2013-11-19 18:02:00,
2013-11-19 13:10:00,41.2,26.3,30.31,ENE,61,4.0,0.0,55,0.00,,,0.00,VWS V14.01,2013-11-19 18:10:00,
2013-11-19 13:12:00,40.8,26.3,30.32,NNE,24,1.0,0.0,56,0.00,,,0.00,VWS V14.01,2013-11-19 18:12:00,
2013-11-19 13:17:00,40.9,26.4,30.32,NNW,346,5.0,0.0,56,0.00,,,0.00,VWS V14.01,2013-11-19 18:17:00,
2013-11-19 13:20:00,41.1,26.6,30.31,East,84,3.0,0.0,56,0.00,,,0.00,VWS V14.01,2013-11-19 18:20:00,
2013-11-19 13:25:00,42.1,26.7,30.31,ENE,60,1.0,0.0,54,0.00,,,0.00,VWS V14.01,2013-11-19 18:25:00,
2013-11-19 13:30:00,41.8,26.4,30.30,ENE,67,4.0,0.0,54,0.00,,,0.00,VWS V14.01,2013-11-19 18:30:00,
2013-11-19 13:32:00,42.3,27.3,30.31,ENE,62,0.0,0.0,55,0.00,,,0.00,VWS V14.01,2013-11-19 18:32:00,
2013-11-19 13:37:00,42.3,26.9,30.31,NE,54,2.0,0.0,54,0.00,,,0.00,VWS V14.01,2013-11-19 18:37:00,
2013-11-19 13:40:00,41.6,26.2,30.30,ENE,71,1.0,0.0,54,0.00,,,0.00,VWS V14.01,2013-11-19 18:40:00,
2013-11-19 13:42:00,42.5,27.0,30.31,NNE,20,2.0,0.0,54,0.00,,,0.00,VWS V14.01,2013-11-19 18:42:00,
2013-11-19 13:47:00,42.2,26.3,30.31,NE,49,2.0,0.0,53,0.00,,,0.00,VWS V14.01,2013-11-19 18:47:00,
2013-11-19 13:50:00,41.3,26.8,30.31,NNE,19,4.0,0.0,56,0.00,,,0.00,VWS V14.01,2013-11-19 18:50:00,
2013-11-19 13:52:00,42.2,26.3,30.31,NNE,13,3.0,0.0,53,0.00,,,0.00,VWS V14.01,2013-11-19 18:52:00,
2013-11-19 13:57:00,42.2,27.2,30.31,NE,36,1.0,0.0,55,0.00,,,0.00,VWS V14.01,2013-11-19 18:57:00,
2013-11-19 14:00:00,41.1,26.6,30.30,NNE,30,3.0,0.0,56,0.00,,,0.00,VWS V14.01,2013-11-19 19:00:00,
2013-11-19 14:02:00,42.1,26.7,30.31,NNE,31,4.0,0.0,54,0.00,,,0.00,VWS V14.01,2013-11-19 19:02:00,
2013-11-19 14:07:00,41.6,26.6,30.31,East,83,5.0,0.0,55,0.00,,,0.00,VWS V14.01,2013-11-19 19:07:00,
2013-11-19 14:10:00,40.9,26.4,30.30,NE,49,3.0,0.0,56,0.00,,,0.00,VWS V14.01,2013-11-19 19:10:00,
2013-11-19 14:12:00,41.5,26.5,30.31,ENE,63,2.0,0.0,55,0.00,,,0.00,VWS V14.01,2013-11-19 19:12:00,
2013-11-19 14:17:00,41.1,26.2,30.31,ENE,66,3.0,0.0,55,0.00,,,0.00,VWS V14.01,2013-11-19 19:17:00,
2013-11-19 14:20:00,40.9,26.9,30.30,ENE,63,3.0,0.0,57,0.00,,,0.00,VWS V14.01,2013-11-19 19:20:00,
2013-11-19 14:22:00,40.9,26.9,30.31,ENE,64,2.0,0.0,57,0.00,,,0.00,VWS V14.01,2013-11-19 19:22:00,
2013-11-19 14:27:00,41.1,26.6,30.31,ENE,73,3.0,0.0,56,0.00,,,0.00,VWS V14.01,2013-11-19 19:27:00,
2013-11-19 14:30:00,40.9,26.9,30.30,NE,55,3.0,0.0,57,0.00,,,0.00,VWS V14.01,2013-11-19 19:30:00,
2013-11-19 14:32:00,41.3,26.8,30.31,ENE,59,1.0,0.0,56,0.00,,,0.00,VWS V14.01,2013-11-19 19:32:00,
2013-11-19 14:37:00,41.8,26.4,30.30,NE,49,2.0,0.0,54,0.00,,,0.00,VWS V14.01,2013-11-19 19:37:00,
2013-11-19 14:40:00,41.1,26.6,30.30,ENE,63,3.0,0.0,56,0.00,,,0.00,VWS V14.01,2013-11-19 19:40:00,
2013-11-19 14:42:00,41.5,26.1,30.30,ENE,78,1.0,0.0,54,0.00,,,0.00,VWS V14.01,2013-11-19 19:42:00,
2013-11-19 14:47:00,41.5,26.5,30.30,ENE,70,3.0,0.0,55,0.00,,,0.00,VWS V14.01,2013-11-19 19:47:00,
2013-11-19 14:50:00,41.5,27.0,30.30,ENE,61,3.0,0.0,56,0.00,,,0.00,VWS V14.01,2013-11-19 19:50:00,
2013-11-19 14:51:00,41.6,27.1,30.30,ENE,59,2.0,0.0,56,0.00,,,0.00,VWS V14.01,2013-11-19 19:51:00,
2013-11-19 14:52:00,41.2,26.7,30.31,ENE,64,0.0,0.0,56,0.00,,,0.00,VWS V14.01,2013-11-19 19:52:00,
2013-11-19 14:57:00,41.3,26.4,30.31,NNE,32,1.0,0.0,55,0.00,,,0.00,VWS V14.01,2013-11-19 19:57:00,
2013-11-19 15:00:00,40.8,26.3,30.31,NE,34,4.0,0.0,56,0.00,,,0.00,VWS V14.01,2013-11-19 20:00:00,
2013-11-19 15:02:00,41.2,26.7,30.31,ENE,64,3.0,0.0,56,0.00,,,0.00,VWS V14.01,2013-11-19 20:02:00,
2013-11-19 15:07:00,41.1,26.6,30.30,ENE,60,3.0,0.0,56,0.00,,,0.00,VWS V14.01,2013-11-19 20:07:00,
2013-11-19 15:10:00,40.3,26.3,30.31,NE,46,2.0,0.0,57,0.00,,,0.00,VWS V14.01,2013-11-19 20:10:00,
2013-11-19 15:11:00,40.3,26.3,30.31,ENE,57,3.0,0.0,57,0.00,,,0.00,VWS V14.01,2013-11-19 20:11:00,
2013-11-19 15:12:00,40.9,26.4,30.30,NNE,31,4.0,0.0,56,0.00,,,0.00,VWS V14.01,2013-11-19 20:12:00,
2013-11-19 15:17:00,40.9,26.4,30.30,ENE,58,0.0,0.0,56,0.00,,,0.00,VWS V14.01,2013-11-19 20:17:00,
2013-11-19 15:20:00,40.1,26.5,30.31,ENE,72,3.0,0.0,58,0.00,,,0.00,VWS V14.01,2013-11-19 20:20:00,
2013-11-19 15:21:00,39.9,26.8,30.31,ENE,72,2.0,0.0,59,0.00,,,0.00,VWS V14.01,2013-11-19 20:21:00,
2013-11-19 15:22:00,40.8,26.3,30.30,NW,326,0.0,0.0,56,0.00,,,0.00,VWS V14.01,2013-11-19 20:22:00,
2013-11-19 15:27:00,40.9,26.4,30.30,ENE,69,2.0,0.0,56,0.00,,,0.00,VWS V14.01,2013-11-19 20:27:00,
2013-11-19 15:30:00,39.8,27.1,30.31,ENE,65,3.0,0.0,60,0.00,,,0.00,VWS V14.01,2013-11-19 20:30:00,
2013-11-19 15:32:00,40.9,27.3,30.30,NNE,33,6.0,0.0,58,0.00,,,0.00,VWS V14.01,2013-11-19 20:32:00,
2013-11-19 15:37:00,40.9,26.4,30.30,NE,39,4.0,0.0,56,0.00,,,0.00,VWS V14.01,2013-11-19 20:37:00,
2013-11-19 15:40:00,39.3,26.2,30.31,ENE,70,2.0,0.0,59,0.00,,,0.00,VWS V14.01,2013-11-19 20:40:00,
2013-11-19 15:42:00,40.9,26.4,30.30,ENE,58,3.0,0.0,56,0.00,,,0.00,VWS V14.01,2013-11-19 20:42:00,
2013-11-19 15:47:00,41.2,26.7,30.30,NNE,13,0.0,0.0,56,0.00,,,0.00,VWS V14.01,2013-11-19 20:47:00,
2013-11-19 15:50:00,38.9,25.8,30.32,NNE,31,3.0,0.0,59,0.00,,,0.00,VWS V14.01,2013-11-19 20:50:00,
2013-11-19 15:52:00,41.3,26.8,30.30,East,79,3.0,0.0,56,0.00,,,0.00,VWS V14.01,2013-11-19 20:52:00,
2013-11-19 16:00:00,38.6,25.9,30.32,NNE,15,3.0,0.0,60,0.00,,,0.00,VWS V14.01,2013-11-19 21:00:00,
2013-11-19 16:01:00,38.6,26.3,30.32,NE,42,0.0,0.0,61,0.00,,,0.00,VWS V14.01,2013-11-19 21:01:00,
2013-11-19 16:02:00,41.2,26.3,30.30,ENE,61,2.0,0.0,55,0.00,,,0.00,VWS V14.01,2013-11-19 21:02:00,
2013-11-19 16:07:00,40.6,26.1,30.31,NE,39,0.0,0.0,56,0.00,,,0.00,VWS V14.01,2013-11-19 21:07:00,
2013-11-19 16:10:00,38.3,25.6,30.32,NNE,23,4.0,0.0,60,0.00,,,0.00,VWS V14.01,2013-11-19 21:10:00,
2013-11-19 16:12:00,40.5,26.0,30.31,ENE,64,2.0,0.0,56,0.00,,,0.00,VWS V14.01,2013-11-19 21:12:00,
2013-11-19 16:20:00,38.0,25.8,30.33,NE,40,4.0,0.0,61,0.00,,,0.00,VWS V14.01,2013-11-19 21:20:00,
2013-11-19 16:22:00,40.2,26.6,30.31,ENE,67,3.0,0.0,58,0.00,,,0.00,VWS V14.01,2013-11-19 21:22:00,
2013-11-19 16:30:00,37.9,25.7,30.33,NNE,28,3.0,0.0,61,0.00,,,0.00,VWS V14.01,2013-11-19 21:30:00,
2013-11-19 16:32:00,39.9,26.8,30.31,NE,38,3.0,0.0,59,0.00,,,0.00,VWS V14.01,2013-11-19 21:32:00,
2013-11-19 16:37:00,39.8,26.7,30.31,ENE,65,0.0,0.0,59,0.00,,,0.00,VWS V14.01,2013-11-19 21:37:00,
2013-11-19 16:40:00,37.5,25.7,30.33,ENE,61,0.0,0.0,62,0.00,,,0.00,VWS V14.01,2013-11-19 21:40:00,
2013-11-19 16:42:00,39.5,26.4,30.31,ENE,61,2.0,0.0,59,0.00,,,0.00,VWS V14.01,2013-11-19 21:42:00,
2013-11-19 16:46:00,37.3,25.9,30.33,NNE,26,6.0,0.0,63,0.00,,,0.00,VWS V14.01,2013-11-19 21:46:00,
2013-11-19 16:47:00,39.3,26.6,30.31,ENE,78,3.0,0.0,60,0.00,,,0.00,VWS V14.01,2013-11-19 21:47:00,
2013-11-19 16:50:00,37.3,25.9,30.33,NE,40,0.0,0.0,63,0.00,,,0.00,VWS V14.01,2013-11-19 21:50:00,
2013-11-19 16:52:00,39.1,26.0,30.32,ENE,64,3.0,0.0,59,0.00,,,0.00,VWS V14.01,2013-11-19 21:52:00,
2013-11-19 16:57:00,38.9,25.8,30.32,NE,41,1.0,0.0,59,0.00,,,0.00,VWS V14.01,2013-11-19 21:57:00,
2013-11-19 17:00:00,37.2,25.8,30.33,North,11,5.0,0.0,63,0.00,,,0.00,VWS V14.01,2013-11-19 22:00:00,
2013-11-19 17:02:00,38.8,26.1,30.32,ENE,59,3.0,0.0,60,0.00,,,0.00,VWS V14.01,2013-11-19 22:02:00,
2013-11-19 17:06:00,37.2,26.2,30.33,NNE,26,0.0,0.0,64,0.00,,,0.00,VWS V14.01,2013-11-19 22:06:00,
2013-11-19 17:10:00,37.0,26.0,30.33,NNE,25,0.0,0.0,64,0.00,,,0.00,VWS V14.01,2013-11-19 22:10:00,
2013-11-19 17:11:00,37.0,26.0,30.33,NNE,26,1.0,0.0,64,0.00,,,0.00,VWS V14.01,2013-11-19 22:11:00,
2013-11-19 17:12:00,38.5,25.8,30.32,NNE,19,4.0,0.0,60,0.00,,,0.00,VWS V14.01,2013-11-19 22:12:00,
2013-11-19 17:17:00,38.3,26.0,30.32,NE,37,2.0,0.0,61,0.00,,,0.00,VWS V14.01,2013-11-19 22:17:00,
2013-11-19 17:20:00,36.9,26.2,30.34,NNE,12,6.0,0.0,65,0.00,,,0.00,VWS V14.01,2013-11-19 22:20:00,
2013-11-19 17:22:00,38.2,26.0,30.33,ENE,59,4.0,0.0,61,0.00,,,0.00,VWS V14.01,2013-11-19 22:22:00,
2013-11-19 17:27:00,38.0,25.8,30.33,NE,54,2.0,0.0,61,0.00,,,0.00,VWS V14.01,2013-11-19 22:27:00,
2013-11-19 17:30:00,36.8,26.1,30.34,NE,46,1.0,0.0,65,0.00,,,0.00,VWS V14.01,2013-11-19 22:30:00,
2013-11-19 17:32:00,37.9,25.7,30.33,NE,43,1.0,0.0,61,0.00,,,0.00,VWS V14.01,2013-11-19 22:32:00,
2013-11-19 17:37:00,37.8,25.6,30.33,NNE,25,3.0,0.0,61,0.00,,,0.00,VWS V14.01,2013-11-19 22:37:00,
2013-11-19 17:40:00,36.6,26.0,30.34,NE,40,5.0,0.0,65,0.00,,,0.00,VWS V14.01,2013-11-19 22:40:00,
2013-11-19 17:42:00,37.6,25.8,30.33,NNE,25,0.0,0.0,62,0.00,,,0.00,VWS V14.01,2013-11-19 22:42:00,
2013-11-19 17:47:00,37.5,25.7,30.33,NE,42,0.0,0.0,62,0.00,,,0.00,VWS V14.01,2013-11-19 22:47:00,
2013-11-19 17:50:00,36.6,26.0,30.34,NE,40,0.0,0.0,65,0.00,,,0.00,VWS V14.01,2013-11-19 22:50:00,
2013-11-19 17:52:00,36.5,25.9,30.34,NE,43,1.0,0.0,65,0.00,,,0.00,VWS V14.01,2013-11-19 22:52:00,
2013-11-19 17:55:00,37.3,25.9,30.33,NE,40,0.0,0.0,63,0.00,,,0.00,VWS V14.01,2013-11-19 22:55:00,
2013-11-19 18:00:00,36.5,25.9,30.34,NE,39,1.0,0.0,65,0.00,,,0.00,VWS V14.01,2013-11-19 23:00:00,
2013-11-19 18:02:00,37.2,25.8,30.33,NE,53,0.0,0.0,63,0.00,,,0.00,VWS V14.01,2013-11-19 23:02:00,
2013-11-19 18:07:00,37.2,25.8,30.33,NE,42,2.0,0.0,63,0.00,,,0.00,VWS V14.01,2013-11-19 23:07:00,
2013-11-19 18:10:00,36.5,25.9,30.34,ENE,59,2.0,0.0,65,0.00,,,0.00,VWS V14.01,2013-11-19 23:10:00,
2013-11-19 18:15:00,37.0,26.0,30.33,NNE,25,0.0,0.0,64,0.00,,,0.00,VWS V14.01,2013-11-19 23:15:00,
2013-11-19 18:20:00,36.3,25.7,30.35,ENE,64,3.0,0.0,65,0.00,,,0.00,VWS V14.01,2013-11-19 23:20:00,
2013-11-19 18:22:00,36.9,26.2,30.34,NNE,24,1.0,0.0,65,0.00,,,0.00,VWS V14.01,2013-11-19 23:22:00,
2013-11-19 18:30:00,36.5,25.9,30.35,ENE,69,3.0,0.0,65,0.00,,,0.00,VWS V14.01,2013-11-19 23:30:00,
2013-11-19 18:40:00,36.3,25.7,30.35,ENE,61,0.0,0.0,65,0.00,,,0.00,VWS V14.01,2013-11-19 23:40:00,
2013-11-19 18:42:00,36.6,26.0,30.34,NE,35,3.0,0.0,65,0.00,,,0.00,VWS V14.01,2013-11-19 23:42:00,
2013-11-19 18:47:00,36.6,26.0,30.34,ENE,67,2.0,0.0,65,0.00,,,0.00,VWS V14.01,2013-11-19 23:47:00,
2013-11-19 18:50:00,36.0,25.8,30.35,ENE,63,3.0,0.0,66,0.00,,,0.00,VWS V14.01,2013-11-19 23:50:00,
2013-11-19 19:00:00,35.9,25.7,30.35,ENE,64,0.0,0.0,66,0.00,,,0.00,VWS V14.01,2013-11-20 00:00:00,
2013-11-19 19:02:00,36.5,25.9,30.34,NE,56,2.0,0.0,65,0.00,,,0.00,VWS V14.01,2013-11-20 00:02:00,
2013-11-19 19:07:00,35.6,25.7,30.35,NE,55,3.0,0.0,67,0.00,,,0.00,VWS V14.01,2013-11-20 00:07:00,
2013-11-19 19:10:00,35.5,25.6,30.35,ENE,59,3.0,0.0,67,0.00,,,0.00,VWS V14.01,2013-11-20 00:10:00,
2013-11-19 19:12:00,36.5,25.9,30.34,NE,51,2.0,0.0,65,0.00,,,0.00,VWS V14.01,2013-11-20 00:12:00,
2013-11-19 19:17:00,36.3,26.0,30.34,ENE,78,0.0,0.0,66,0.00,,,0.00,VWS V14.01,2013-11-20 00:17:00,
2013-11-19 19:20:00,35.3,25.5,30.35,NE,51,3.0,0.0,67,0.00,,,0.00,VWS V14.01,2013-11-20 00:20:00,
2013-11-19 19:22:00,36.3,25.7,30.35,NNE,30,4.0,0.0,65,0.00,,,0.00,VWS V14.01,2013-11-20 00:22:00,
2013-11-19 19:28:00,36.3,25.7,30.35,NE,46,3.0,0.0,65,0.00,,,0.00,VWS V14.01,2013-11-20 00:28:00,
2013-11-19 19:30:00,34.9,25.4,30.34,East,87,2.0,0.0,68,0.00,,,0.00,VWS V14.01,2013-11-20 00:30:00,
2013-11-19 19:33:00,36.5,25.9,30.35,ENE,59,2.0,0.0,65,0.00,,,0.00,VWS V14.01,2013-11-20 00:33:00,
2013-11-19 19:38:00,36.5,25.9,30.35,NE,55,1.0,0.0,65,0.00,,,0.00,VWS V14.01,2013-11-20 00:38:00,
2013-11-19 19:40:00,34.7,25.2,30.34,ENE,78,3.0,0.0,68,0.00,,,0.00,VWS V14.01,2013-11-20 00:40:00,
2013-11-19 19:43:00,36.3,25.7,30.35,ENE,65,1.0,0.0,65,0.00,,,0.00,VWS V14.01,2013-11-20 00:43:00,
2013-11-19 19:48:00,36.2,26.0,30.35,ENE,71,2.0,0.0,66,0.00,,,0.00,VWS V14.01,2013-11-20 00:48:00,
2013-11-19 19:50:00,34.6,25.1,30.35,East,84,1.0,0.0,68,0.00,,,0.00,VWS V14.01,2013-11-20 00:50:00,
2013-11-19 19:53:00,36.2,25.6,30.35,NE,51,1.0,0.0,65,0.00,,,0.00,VWS V14.01,2013-11-20 00:53:00,
2013-11-19 19:58:00,36.0,25.8,30.35,ENE,73,3.0,0.0,66,0.00,,,0.00,VWS V14.01,2013-11-20 00:58:00,
2013-11-19 20:00:00,34.4,25.0,30.35,ENE,73,3.0,0.0,68,0.00,,,0.00,VWS V14.01,2013-11-20 01:00:00,
2013-11-19 20:03:00,35.9,25.7,30.35,East,84,0.0,0.0,66,0.00,,,0.00,VWS V14.01,2013-11-20 01:03:00,
2013-11-19 20:10:00,34.4,25.0,30.35,ENE,71,3.0,0.0,68,0.00,,,0.00,VWS V14.01,2013-11-20 01:10:00,
2013-11-19 20:15:00,35.5,25.6,30.35,ENE,59,3.0,0.0,67,0.00,,,0.00,VWS V14.01,2013-11-20 01:15:00,
2013-11-19 20:20:00,34.6,25.1,30.35,ENE,69,4.0,0.0,68,0.00,,,0.00,VWS V14.01,2013-11-20 01:20:00,
2013-11-19 20:23:00,35.3,25.5,30.35,ENE,67,0.0,0.0,67,0.00,,,0.00,VWS V14.01,2013-11-20 01:23:00,
2013-11-19 20:28:00,35.2,25.7,30.35,ENE,57,3.0,0.0,68,0.00,,,0.00,VWS V14.01,2013-11-20 01:28:00,
2013-11-19 20:30:00,34.7,24.9,30.34,ENE,67,1.0,0.0,67,0.00,,,0.00,VWS V14.01,2013-11-20 01:30:00,
2013-11-19 20:33:00,35.0,25.5,30.35,East,82,0.0,0.0,68,0.00,,,0.00,VWS V14.01,2013-11-20 01:33:00,
2013-11-19 20:38:00,34.9,25.4,30.34,ENE,67,1.0,0.0,68,0.00,,,0.00,VWS V14.01,2013-11-20 01:38:00,
2013-11-19 20:40:00,34.9,25.1,30.34,East,82,1.0,0.0,67,0.00,,,0.00,VWS V14.01,2013-11-20 01:40:00,
2013-11-19 20:43:00,34.9,25.4,30.34,ENE,73,0.0,0.0,68,0.00,,,0.00,VWS V14.01,2013-11-20 01:43:00,
2013-11-19 20:48:00,34.7,25.2,30.34,ENE,78,1.0,0.0,68,0.00,,,0.00,VWS V14.01,2013-11-20 01:48:00,
2013-11-19 20:50:00,34.9,24.7,30.35,East,80,1.0,0.0,66,0.00,,,0.00,VWS V14.01,2013-11-20 01:50:00,
2013-11-19 20:53:00,34.7,25.2,30.35,East,84,0.0,0.0,68,0.00,,,0.00,VWS V14.01,2013-11-20 01:53:00,
2013-11-19 20:58:00,34.6,25.1,30.35,ENE,61,2.0,0.0,68,0.00,,,0.00,VWS V14.01,2013-11-20 01:58:00,
2013-11-19 21:00:00,34.9,24.7,30.35,ENE,67,3.0,0.0,66,0.00,,,0.00,VWS V14.01,2013-11-20 02:00:00,
2013-11-19 21:03:00,34.6,25.1,30.35,ENE,68,2.0,0.0,68,0.00,,,0.00,VWS V14.01,2013-11-20 02:03:00,
2013-11-19 21:08:00,34.4,25.0,30.35,ENE,68,2.0,0.0,68,0.00,,,0.00,VWS V14.01,2013-11-20 02:08:00,
2013-11-19 21:10:00,34.9,24.7,30.35,ENE,70,4.0,0.0,66,0.00,,,0.00,VWS V14.01,2013-11-20 02:10:00,
2013-11-19 21:13:00,34.4,25.0,30.35,ENE,70,0.0,0.0,68,0.00,,,0.00,VWS V14.01,2013-11-20 02:13:00,
2013-11-19 21:18:00,34.4,25.0,30.35,ENE,71,3.0,0.0,68,0.00,,,0.00,VWS V14.01,2013-11-20 02:18:00,
2013-11-19 21:20:00,35.0,24.4,30.35,East,80,3.0,0.0,65,0.00,,,0.00,VWS V14.01,2013-11-20 02:20:00,
2013-11-19 21:23:00,34.4,25.0,30.35,ENE,71,3.0,0.0,68,0.00,,,0.00,VWS V14.01,2013-11-20 02:23:00,
2013-11-19 21:28:00,34.6,24.8,30.35,ENE,71,2.0,0.0,67,0.00,,,0.00,VWS V14.01,2013-11-20 02:28:00,
2013-11-19 21:30:00,34.9,24.7,30.35,ENE,60,4.0,0.0,66,0.00,,,0.00,VWS V14.01,2013-11-20 02:30:00,
2013-11-19 21:33:00,34.7,24.9,30.35,East,85,3.0,0.0,67,0.00,,,0.00,VWS V14.01,2013-11-20 02:33:00,
2013-11-19 21:38:00,34.9,25.1,30.34,East,81,0.0,0.0,67,0.00,,,0.00,VWS V14.01,2013-11-20 02:38:00,
2013-11-19 21:40:00,35.0,24.8,30.35,East,82,6.0,0.0,66,0.00,,,0.00,VWS V14.01,2013-11-20 02:40:00,
2013-11-19 21:43:00,34.9,25.1,30.34,ENE,61,3.0,0.0,67,0.00,,,0.00,VWS V14.01,2013-11-20 02:43:00,
2013-11-19 21:48:00,34.9,25.1,30.34,ENE,58,3.0,0.0,67,0.00,,,0.00,VWS V14.01,2013-11-20 02:48:00,
2013-11-19 21:50:00,35.0,24.4,30.34,ENE,60,7.0,0.0,65,0.00,,,0.00,VWS V14.01,2013-11-20 02:50:00,
2013-11-19 21:53:00,34.9,24.7,30.35,ENE,63,0.0,0.0,66,0.00,,,0.00,VWS V14.01,2013-11-20 02:53:00,
2013-11-19 21:58:00,34.9,24.7,30.35,NE,56,3.0,0.0,66,0.00,,,0.00,VWS V14.01,2013-11-20 02:58:00,
2013-11-19 22:00:00,34.9,24.7,30.33,NE,55,3.0,0.0,66,0.00,,,0.00,VWS V14.01,2013-11-20 03:00:00,
2013-11-19 22:03:00,34.9,24.7,30.35,ENE,60,2.0,0.0,66,0.00,,,0.00,VWS V14.01,2013-11-20 03:03:00,
2013-11-19 22:08:00,34.9,24.7,30.35,ENE,68,1.0,0.0,66,0.00,,,0.00,VWS V14.01,2013-11-20 03:08:00,
2013-11-19 22:10:00,34.6,24.8,30.33,ENE,74,5.0,0.0,67,0.00,,,0.00,VWS V14.01,2013-11-20 03:10:00,
2013-11-19 22:13:00,34.9,24.7,30.35,ENE,76,3.0,0.0,66,0.00,,,0.00,VWS V14.01,2013-11-20 03:13:00,
2013-11-19 22:18:00,34.9,24.3,30.35,ENE,57,4.0,0.0,65,0.00,,,0.00,VWS V14.01,2013-11-20 03:18:00,
2013-11-19 22:20:00,34.3,24.5,30.33,ENE,71,5.0,0.0,67,0.00,,,0.00,VWS V14.01,2013-11-20 03:20:00,
2013-11-19 22:23:00,35.0,24.4,30.35,ENE,68,5.0,0.0,65,0.00,,,0.00,VWS V14.01,2013-11-20 03:23:00,
2013-11-19 22:28:00,35.0,24.4,30.35,ENE,66,3.0,0.0,65,0.00,,,0.00,VWS V14.01,2013-11-20 03:28:00,
2013-11-19 22:30:00,34.1,24.3,30.33,ENE,58,4.0,0.0,67,0.00,,,0.00,VWS V14.01,2013-11-20 03:30:00,
2013-11-19 22:33:00,34.9,24.7,30.35,East,81,3.0,0.0,66,0.00,,,0.00,VWS V14.01,2013-11-20 03:33:00,
2013-11-19 22:38:00,34.9,24.7,30.35,East,81,3.0,0.0,66,0.00,,,0.00,VWS V14.01,2013-11-20 03:38:00,
2013-11-19 22:40:00,33.8,24.4,30.33,ENE,77,8.0,0.0,68,0.00,,,0.00,VWS V14.01,2013-11-20 03:40:00,
2013-11-19 22:43:00,35.0,24.4,30.35,ENE,71,3.0,0.0,65,0.00,,,0.00,VWS V14.01,2013-11-20 03:43:00,
2013-11-19 22:48:00,35.0,24.4,30.35,ENE,65,10.0,0.0,65,0.00,,,0.00,VWS V14.01,2013-11-20 03:48:00,
2013-11-19 22:50:00,33.7,24.3,30.32,ENE,76,4.0,0.0,68,0.00,,,0.00,VWS V14.01,2013-11-20 03:50:00,
2013-11-19 22:53:00,35.0,24.4,30.34,ENE,64,4.0,0.0,65,0.00,,,0.00,VWS V14.01,2013-11-20 03:53:00,
2013-11-19 22:57:00,33.7,24.3,30.32,ENE,70,2.0,0.0,68,0.00,,,0.00,VWS V14.01,2013-11-20 03:57:00,
2013-11-19 22:58:00,35.0,24.8,30.34,ENE,59,5.0,0.0,66,0.00,,,0.00,VWS V14.01,2013-11-20 03:58:00,
2013-11-19 23:00:00,33.5,24.1,30.31,ENE,67,2.0,0.0,68,0.00,,,0.00,VWS V14.01,2013-11-20 04:00:00,
2013-11-19 23:02:00,33.5,24.1,30.31,ENE,72,4.0,0.0,68,0.00,,,0.00,VWS V14.01,2013-11-20 04:02:00,
2013-11-19 23:03:00,34.9,24.7,30.34,ENE,63,4.0,0.0,66,0.00,,,0.00,VWS V14.01,2013-11-20 04:03:00,
2013-11-19 23:07:00,33.5,24.1,30.31,ENE,68,5.0,0.0,68,0.00,,,0.00,VWS V14.01,2013-11-20 04:07:00,
2013-11-19 23:08:00,34.7,24.5,30.33,ENE,71,0.0,0.0,66,0.00,,,0.00,VWS V14.01,2013-11-20 04:08:00,
2013-11-19 23:10:00,33.5,24.1,30.31,ENE,74,3.0,0.0,68,0.00,,,0.00,VWS V14.01,2013-11-20 04:10:00,
2013-11-19 23:13:00,34.6,24.8,30.33,NE,49,4.0,0.0,67,0.00,,,0.00,VWS V14.01,2013-11-20 04:13:00,
2013-11-19 23:18:00,34.4,24.6,30.33,ENE,71,3.0,0.0,67,0.00,,,0.00,VWS V14.01,2013-11-20 04:18:00,
2013-11-19 23:20:00,33.5,24.1,30.31,ENE,67,10.0,0.0,68,0.00,,,0.00,VWS V14.01,2013-11-20 04:20:00,
2013-11-19 23:23:00,34.3,24.5,30.33,East,79,5.0,0.0,67,0.00,,,0.00,VWS V14.01,2013-11-20 04:23:00,
2013-11-19 23:28:00,34.3,24.5,30.33,ENE,70,5.0,0.0,67,0.00,,,0.00,VWS V14.01,2013-11-20 04:28:00,
2013-11-19 23:30:00,33.7,23.9,30.31,ENE,75,3.0,0.0,67,0.00,,,0.00,VWS V14.01,2013-11-20 04:30:00,
2013-11-19 23:33:00,34.1,24.3,30.33,ENE,78,2.0,0.0,67,0.00,,,0.00,VWS V14.01,2013-11-20 04:33:00,
2013-11-19 23:38:00,34.0,24.6,30.33,ENE,57,3.0,0.0,68,0.00,,,0.00,VWS V14.01,2013-11-20 04:38:00,
2013-11-19 23:40:00,33.7,23.9,30.31,ENE,63,5.0,0.0,67,0.00,,,0.00,VWS V14.01,2013-11-20 04:40:00,
2013-11-19 23:43:00,34.0,24.6,30.33,ENE,76,4.0,0.0,68,0.00,,,0.00,VWS V14.01,2013-11-20 04:43:00,
2013-11-19 23:48:00,33.8,24.4,30.33,ENE,78,2.0,0.0,68,0.00,,,0.00,VWS V14.01,2013-11-20 04:48:00,
2013-11-19 23:50:00,33.7,23.9,30.30,ENE,63,10.0,0.0,67,0.00,,,0.00,VWS V14.01,2013-11-20 04:50:00,
2013-11-19 23:53:00,33.8,24.4,30.32,East,90,5.0,0.0,68,0.00,,,0.00,VWS V14.01,2013-11-20 04:53:00,
2013-11-19 23:58:00,33.7,24.3,30.32,NE,56,3.0,0.0,68,0.00,,,0.00,VWS V14.01,2013-11-20 04:58:00,